DataTemp.
Ø
Temp.
Max
Temp.
Min
UmiditàPressionePioggiaVento
Ø
Vento
dir. Ø
Vento
Max
Rad. solare
Ø
Rad. solare
Max
Indice UV
Max
06.07.2022 00:0021.1°C21.1°C21.0°C72.0%1015.8hPa0.0mm4.7km/hS9.7km/h0.0W/m²0W/m²0uvi
06.07.2022 00:0521.1°C21.1°C21.0°C72.0%1015.8hPa0.0mm3.2km/hS3.2km/h0.0W/m²0W/m²0uvi
06.07.2022 00:1021.1°C21.1°C21.1°C72.0%1015.8hPa0.0mm1.4km/hS4.7km/h0.0W/m²0W/m²0uvi
06.07.2022 00:1521.1°C21.2°C21.1°C71.5%1015.8hPa0.0mm1.7km/hSSW9.7km/h0.0W/m²0W/m²0uvi
06.07.2022 00:2021.2°C21.3°C21.2°C71.0%1016.0hPa0.0mm3.9km/hSSW11.2km/h0.0W/m²0W/m²0uvi
06.07.2022 00:2521.3°C21.4°C21.3°C71.0%1016.1hPa0.0mm4.7km/hSSW9.7km/h0.0W/m²0W/m²0uvi
06.07.2022 00:3021.3°C21.3°C21.3°C71.0%1016.1hPa0.0mm4.6km/hSSW11.2km/h0.0W/m²0W/m²0uvi
06.07.2022 00:3521.3°C21.3°C21.3°C71.7%1016.1hPa0.0mm3.2km/hSSW6.5km/h0.0W/m²0W/m²0uvi
06.07.2022 00:4021.4°C21.4°C21.3°C72.8%1016.3hPa0.0mm2.9km/hW7.9km/h0.0W/m²0W/m²0uvi
06.07.2022 00:4521.4°C21.5°C21.4°C73.0%1016.2hPa0.0mm3.2km/hW3.2km/h0.0W/m²0W/m²0uvi
06.07.2022 00:5021.5°C21.6°C21.5°C73.0%1016.1hPa0.0mm1.4km/hW3.2km/h0.0W/m²0W/m²0uvi
06.07.2022 00:5521.5°C21.6°C21.5°C72.6%1016.0hPa0.0mm0.2km/hS4.7km/h0.0W/m²0W/m²0uvi
06.07.2022 01:0021.6°C21.6°C21.5°C71.5%1016.1hPa0.0mm1.4km/hS4.7km/h0.0W/m²0W/m²0uvi
06.07.2022 01:0521.6°C21.6°C21.5°C71.6%1016.1hPa0.0mm1.4km/hS1.4km/h0.0W/m²0W/m²0uvi
06.07.2022 01:1021.5°C21.6°C21.5°C72.0%1016.2hPa0.0mm1.1km/hSE1.4km/h0.0W/m²0W/m²0uvi
06.07.2022 01:1521.4°C21.5°C21.4°C72.4%1016.2hPa0.0mm0.8km/hS4.7km/h0.0W/m²0W/m²0uvi
06.07.2022 01:2021.3°C21.4°C21.3°C73.0%1016.4hPa0.0mm0.0km/hS3.2km/h0.0W/m²0W/m²0uvi
06.07.2022 01:2521.2°C21.3°C21.2°C73.6%1016.3hPa0.0mm0.0km/hN1.4km/h0.0W/m²0W/m²0uvi
06.07.2022 01:3021.2°C21.2°C21.1°C74.8%1016.3hPa0.0mm0.0km/hNNE3.2km/h0.0W/m²0W/m²0uvi
06.07.2022 01:3521.1°C21.1°C21.0°C75.0%1016.5hPa0.0mm0.0km/hENE3.2km/h0.0W/m²0W/m²0uvi
06.07.2022 01:4020.9°C21.0°C20.9°C75.9%1016.5hPa0.0mm0.3km/hESE3.2km/h0.0W/m²0W/m²0uvi
06.07.2022 01:4520.8°C20.9°C20.8°C77.3%1016.5hPa0.0mm0.8km/hSE1.4km/h0.0W/m²0W/m²0uvi
06.07.2022 01:5020.8°C20.8°C20.7°C78.6%1016.5hPa0.0mm0.0km/hSE1.4km/h0.0W/m²0W/m²0uvi
06.07.2022 01:5520.7°C20.7°C20.7°C79.2%1016.6hPa0.0mm0.0km/hSE1.4km/h0.0W/m²0W/m²0uvi
06.07.2022 02:0020.6°C20.7°C20.6°C80.0%1016.7hPa0.0mm0.0km/hSE1.4km/h0.0W/m²0W/m²0uvi
06.07.2022 02:0520.5°C20.6°C20.4°C80.0%1016.6hPa0.0mm0.0km/hSE0.0km/h0.0W/m²0W/m²0uvi
06.07.2022 02:1020.4°C20.5°C20.4°C80.1%1016.8hPa0.0mm0.0km/hSE1.4km/h0.0W/m²0W/m²0uvi
06.07.2022 02:1520.4°C20.4°C20.4°C81.0%1016.7hPa0.0mm0.0km/hSE3.2km/h0.0W/m²0W/m²0uvi
06.07.2022 02:2020.4°C20.4°C20.3°C81.0%1016.8hPa0.0mm0.5km/hSE3.2km/h0.0W/m²0W/m²0uvi
06.07.2022 02:2520.3°C20.4°C20.3°C81.0%1016.8hPa0.0mm1.4km/hSSE3.2km/h0.0W/m²0W/m²0uvi
06.07.2022 02:3020.2°C20.3°C20.2°C81.0%1016.7hPa0.0mm0.5km/hSE1.4km/h0.0W/m²0W/m²0uvi
06.07.2022 02:3520.2°C20.2°C20.2°C81.0%1016.7hPa0.0mm0.0km/hNE3.2km/h0.0W/m²0W/m²0uvi
06.07.2022 02:4020.2°C20.2°C20.1°C81.7%1016.9hPa0.0mm0.7km/hNE4.7km/h0.0W/m²0W/m²0uvi
06.07.2022 02:4520.1°C20.1°C20.0°C82.1%1016.9hPa0.0mm1.4km/hNE4.7km/h0.0W/m²0W/m²0uvi
06.07.2022 02:5019.9°C20.0°C19.8°C83.0%1017.0hPa0.0mm1.4km/hNE4.7km/h0.0W/m²0W/m²0uvi
06.07.2022 02:5519.8°C19.8°C19.8°C83.0%1016.9hPa0.0mm1.4km/hNE4.7km/h0.0W/m²0W/m²0uvi
06.07.2022 03:0019.7°C19.8°C19.7°C83.0%1017.0hPa0.0mm1.4km/hNE3.2km/h0.0W/m²0W/m²0uvi
06.07.2022 03:0519.7°C19.7°C19.7°C83.0%1016.9hPa0.0mm0.7km/hENE3.2km/h0.0W/m²0W/m²0uvi
06.07.2022 03:1019.7°C19.7°C19.6°C83.0%1016.9hPa0.0mm0.0km/hSE3.2km/h0.0W/m²0W/m²0uvi
06.07.2022 03:1519.6°C19.6°C19.6°C83.3%1016.9hPa0.0mm1.0km/hS4.7km/h0.0W/m²0W/m²0uvi
06.07.2022 03:2019.5°C19.6°C19.4°C84.0%1016.9hPa0.0mm1.4km/hSSE3.2km/h0.0W/m²0W/m²0uvi
06.07.2022 03:2519.4°C19.4°C19.4°C84.0%1016.9hPa0.0mm1.4km/hSSW4.7km/h0.0W/m²0W/m²0uvi
06.07.2022 03:3019.4°C19.4°C19.4°C84.0%1016.9hPa0.0mm0.1km/hSSW1.4km/h0.0W/m²0W/m²0uvi
06.07.2022 03:3519.4°C19.4°C19.3°C84.0%1017.0hPa0.0mm0.0km/hSSW1.4km/h0.0W/m²0W/m²0uvi
06.07.2022 03:4019.3°C19.3°C19.3°C84.0%1017.1hPa0.0mm0.0km/hSSW1.4km/h0.0W/m²0W/m²0uvi
06.07.2022 03:4519.3°C19.3°C19.2°C84.9%1017.2hPa0.0mm0.0km/hSSW1.4km/h0.0W/m²0W/m²0uvi
06.07.2022 03:5019.2°C19.2°C19.2°C85.0%1017.2hPa0.0mm0.0km/hSSW1.4km/h0.0W/m²0W/m²0uvi
06.07.2022 03:5519.2°C19.2°C19.2°C85.0%1017.2hPa0.0mm0.0km/hSSW0.0km/h0.0W/m²0W/m²0uvi
06.07.2022 04:0019.2°C19.2°C19.2°C85.0%1017.1hPa0.0mm0.0km/hSSW1.4km/h0.0W/m²0W/m²0uvi
06.07.2022 04:0519.1°C19.2°C19.1°C85.0%1017.1hPa0.0mm0.0km/hSSW1.4km/h0.0W/m²0W/m²0uvi
06.07.2022 04:1019.0°C19.1°C18.9°C85.0%1017.0hPa0.0mm0.0km/hSSE1.4km/h0.0W/m²0W/m²0uvi
06.07.2022 04:1518.9°C18.9°C18.8°C85.0%1016.9hPa0.0mm0.0km/hSSE3.2km/h0.0W/m²0W/m²0uvi
06.07.2022 04:2018.8°C18.8°C18.7°C85.0%1017.0hPa0.0mm0.0km/hE1.4km/h0.0W/m²0W/m²0uvi
06.07.2022 04:2518.7°C18.7°C18.7°C85.0%1017.0hPa0.0mm0.0km/hS1.4km/h0.0W/m²0W/m²0uvi
06.07.2022 04:3018.6°C18.7°C18.6°C85.0%1017.1hPa0.0mm0.0km/hS3.2km/h0.0W/m²0W/m²0uvi
06.07.2022 04:3518.6°C18.7°C18.6°C84.5%1017.1hPa0.0mm0.7km/hSE4.7km/h0.0W/m²0W/m²0uvi
06.07.2022 04:4018.6°C18.6°C18.6°C84.0%1017.1hPa0.0mm1.4km/hESE4.7km/h0.0W/m²0W/m²0uvi
06.07.2022 04:4518.6°C18.6°C18.6°C84.0%1017.2hPa0.0mm1.3km/hESE1.4km/h0.0W/m²0W/m²0uvi
06.07.2022 04:5018.6°C18.6°C18.6°C84.0%1017.1hPa0.0mm0.0km/hESE1.4km/h0.0W/m²0W/m²0uvi
06.07.2022 04:5518.6°C18.6°C18.5°C84.0%1017.1hPa0.0mm0.0km/hESE1.4km/h0.0W/m²0W/m²0uvi
06.07.2022 05:0018.4°C18.5°C18.4°C84.0%1017.2hPa0.0mm0.0km/hESE1.4km/h0.0W/m²0W/m²0uvi
06.07.2022 05:0518.3°C18.4°C18.2°C84.0%1017.2hPa0.0mm0.0km/hESE3.2km/h0.0W/m²0W/m²0uvi
06.07.2022 05:1018.2°C18.2°C18.1°C84.0%1017.2hPa0.0mm0.0km/hS4.7km/h0.0W/m²0W/m²0uvi
06.07.2022 05:1518.1°C18.2°C18.1°C84.3%1017.4hPa0.0mm1.0km/hS4.7km/h0.0W/m²0W/m²0uvi
06.07.2022 05:2018.1°C18.1°C18.0°C84.0%1017.4hPa0.0mm1.4km/hSSE1.4km/h0.0W/m²0W/m²0uvi
06.07.2022 05:2518.0°C18.1°C17.9°C84.0%1017.4hPa0.0mm0.2km/hSSE1.4km/h0.0W/m²0W/m²0uvi
06.07.2022 05:3017.9°C17.9°C17.9°C84.2%1017.5hPa0.0mm0.0km/hNE3.2km/h1.7W/m²5W/m²0uvi
06.07.2022 05:3517.9°C17.9°C17.8°C85.0%1017.5hPa0.0mm0.0km/hNE1.4km/h5.0W/m²5W/m²0uvi
06.07.2022 05:4017.8°C17.8°C17.8°C85.8%1017.5hPa0.0mm0.0km/hNE1.4km/h6.7W/m²7W/m²0uvi
06.07.2022 05:4517.8°C17.8°C17.7°C86.0%1017.6hPa0.0mm0.0km/hESE3.2km/h8.3W/m²9W/m²0uvi
06.07.2022 05:5017.7°C17.8°C17.7°C86.8%1017.5hPa0.0mm1.3km/hS3.2km/h10.0W/m²11W/m²0uvi
06.07.2022 05:5517.7°C17.7°C17.7°C86.2%1017.6hPa0.0mm1.4km/hS4.7km/h11.3W/m²12W/m²0uvi
06.07.2022 06:0017.6°C17.7°C17.6°C86.0%1017.6hPa0.0mm1.4km/hSSE4.7km/h12.7W/m²14W/m²0uvi
06.07.2022 06:0517.6°C17.6°C17.6°C85.3%1017.5hPa0.0mm1.1km/hSSW3.2km/h14.7W/m²16W/m²0uvi
06.07.2022 06:1017.6°C17.7°C17.6°C85.0%1017.6hPa0.0mm0.4km/hSSW1.4km/h17.3W/m²19W/m²0uvi
06.07.2022 06:1517.6°C17.7°C17.6°C85.0%1017.6hPa0.0mm0.0km/hSSW1.4km/h20.2W/m²21W/m²0uvi
06.07.2022 06:2017.7°C17.7°C17.7°C85.0%1017.6hPa0.0mm0.0km/hSSW1.4km/h21.7W/m²23W/m²0uvi
06.07.2022 06:2517.7°C17.8°C17.7°C85.0%1017.7hPa0.0mm0.0km/hSSW0.0km/h23.0W/m²23W/m²0uvi
06.07.2022 06:3017.8°C17.9°C17.7°C85.0%1017.7hPa0.0mm0.0km/hSSW1.4km/h24.7W/m²25W/m²0uvi
06.07.2022 06:3518.0°C18.1°C17.9°C85.0%1017.7hPa0.0mm0.0km/hSSW0.0km/h25.6W/m²26W/m²0uvi
06.07.2022 06:4018.1°C18.2°C18.1°C86.0%1017.7hPa0.0mm0.0km/hSSW1.4km/h26.0W/m²26W/m²0uvi
06.07.2022 06:4518.3°C18.3°C18.2°C86.0%1017.6hPa0.0mm0.0km/hSSW1.4km/h27.6W/m²28W/m²1uvi
06.07.2022 06:5018.4°C18.4°C18.3°C85.3%1017.7hPa0.0mm0.0km/hENE3.2km/h29.7W/m²30W/m²1uvi
06.07.2022 06:5518.4°C18.5°C18.4°C84.3%1017.7hPa0.0mm0.0km/hENE1.4km/h31.0W/m²32W/m²1uvi
06.07.2022 07:0018.5°C18.6°C18.4°C84.0%1017.7hPa0.0mm0.0km/hENE3.2km/h32.0W/m²32W/m²1uvi
06.07.2022 07:0518.6°C18.7°C18.6°C84.0%1017.7hPa0.0mm0.4km/hNNE4.7km/h32.2W/m²33W/m²1uvi
06.07.2022 07:1018.7°C18.8°C18.7°C84.0%1017.7hPa0.0mm1.4km/hNNE3.2km/h33.0W/m²33W/m²1uvi
06.07.2022 07:1518.9°C18.9°C18.8°C84.3%1017.7hPa0.0mm1.4km/hNNE4.7km/h33.7W/m²35W/m²1uvi
06.07.2022 07:2018.9°C19.0°C18.9°C85.0%1017.7hPa0.0mm1.4km/hNNE3.2km/h35.0W/m²35W/m²1uvi
06.07.2022 07:2519.1°C19.1°C19.0°C84.0%1017.8hPa0.0mm1.4km/hE3.2km/h35.0W/m²35W/m²1uvi
06.07.2022 07:3019.1°C19.1°C19.1°C83.6%1017.8hPa0.0mm1.1km/hE4.7km/h35.7W/m²37W/m²1uvi
06.07.2022 07:3519.1°C19.2°C19.1°C83.0%1017.7hPa0.0mm0.7km/hSSE4.7km/h37.3W/m²39W/m²1uvi
06.07.2022 07:4019.2°C19.3°C19.2°C83.0%1017.8hPa0.0mm0.0km/hNE3.2km/h39.2W/m²40W/m²1uvi
06.07.2022 07:4519.3°C19.4°C19.3°C83.0%1017.8hPa0.0mm0.0km/hENE3.2km/h40.0W/m²40W/m²1uvi
06.07.2022 07:5019.5°C19.6°C19.4°C82.0%1017.8hPa0.0mm0.0km/hNE3.2km/h42.0W/m²46W/m²1uvi
06.07.2022 07:5519.6°C19.7°C19.6°C81.1%1017.8hPa0.0mm0.4km/hESE3.2km/h48.2W/m²49W/m²1uvi
06.07.2022 08:0019.8°C19.8°C19.7°C79.8%1017.8hPa0.0mm0.1km/hESE3.2km/h48.7W/m²49W/m²1uvi
06.07.2022 08:0519.9°C20.0°C19.8°C78.3%1017.8hPa0.0mm0.6km/hE1.4km/h46.7W/m²47W/m²1uvi
06.07.2022 08:1020.0°C20.1°C19.9°C76.4%1017.8hPa0.0mm0.3km/hE3.2km/h47.7W/m²49W/m²1uvi
06.07.2022 08:1520.2°C20.2°C20.1°C74.9%1017.9hPa0.0mm0.0km/hESE1.4km/h57.2W/m²67W/m²2uvi
06.07.2022 08:2020.3°C20.4°C20.2°C74.0%1017.9hPa0.0mm0.0km/hSE3.2km/h267.3W/m²403W/m²2uvi
06.07.2022 08:2520.6°C20.7°C20.4°C73.4%1017.9hPa0.0mm1.3km/hESE4.7km/h408.2W/m²413W/m²2uvi
06.07.2022 08:3020.8°C20.9°C20.7°C72.5%1017.9hPa0.0mm1.4km/hESE1.4km/h418.7W/m²429W/m²2uvi
06.07.2022 08:3521.2°C21.4°C21.0°C73.0%1017.9hPa0.0mm1.4km/hSE4.7km/h437.6W/m²445W/m²2uvi
06.07.2022 08:4021.7°C21.9°C21.5°C72.4%1017.9hPa0.0mm1.4km/hNNE4.7km/h453.3W/m²457W/m²2uvi
06.07.2022 08:4522.1°C22.3°C21.9°C70.2%1017.8hPa0.0mm1.4km/hNNE6.5km/h437.8W/m²471W/m²2uvi
06.07.2022 08:5022.4°C22.6°C22.3°C69.0%1017.8hPa0.0mm1.4km/hNNE4.7km/h473.8W/m²489W/m²2uvi
06.07.2022 08:5522.7°C22.8°C22.6°C66.4%1017.9hPa0.0mm1.4km/hNNE4.7km/h501.5W/m²513W/m²3uvi
06.07.2022 09:0022.9°C23.1°C22.8°C65.6%1017.8hPa0.0mm1.4km/hNNE3.2km/h518.2W/m²522W/m²4uvi
06.07.2022 09:0523.2°C23.2°C23.1°C65.6%1017.7hPa0.0mm1.4km/hNNE4.7km/h526.3W/m²533W/m²4uvi
06.07.2022 09:1023.3°C23.4°C23.2°C64.4%1017.7hPa0.0mm1.4km/hNE4.7km/h524.2W/m²540W/m²5uvi
06.07.2022 09:1523.4°C23.5°C23.4°C64.1%1017.6hPa0.0mm1.4km/hNNE6.5km/h541.2W/m²548W/m²5uvi
06.07.2022 09:2023.6°C23.6°C23.5°C63.0%1017.5hPa0.0mm3.1km/hNE6.5km/h554.5W/m²563W/m²5uvi
06.07.2022 09:2523.7°C23.9°C23.6°C63.4%1017.5hPa0.0mm2.4km/hESE4.7km/h572.2W/m²585W/m²5uvi
06.07.2022 09:3024.1°C24.3°C24.0°C62.9%1017.5hPa0.0mm1.4km/hNNW6.5km/h609.8W/m²628W/m²5uvi
06.07.2022 09:3524.4°C24.5°C24.3°C61.8%1017.5hPa0.0mm1.4km/hSE4.7km/h632.2W/m²649W/m²5uvi
06.07.2022 09:4024.2°C24.5°C23.8°C60.8%1017.4hPa0.0mm2.0km/hNNE7.9km/h643.0W/m²661W/m²5uvi
06.07.2022 09:4523.9°C24.0°C23.8°C63.8%1017.5hPa0.0mm2.3km/hN4.7km/h665.2W/m²673W/m²6uvi
06.07.2022 09:5024.1°C24.2°C23.9°C61.8%1017.4hPa0.0mm1.4km/hNNE4.7km/h671.2W/m²705W/m²6uvi
06.07.2022 09:5524.0°C24.1°C23.9°C62.3%1017.4hPa0.0mm1.4km/hESE6.5km/h681.2W/m²715W/m²6uvi
06.07.2022 10:0023.9°C24.0°C23.8°C64.0%1017.4hPa0.0mm2.1km/hESE6.5km/h300.8W/m²696W/m²6uvi
06.07.2022 10:0524.3°C24.4°C24.1°C63.7%1017.4hPa0.0mm1.4km/hSE3.2km/h558.9W/m²707W/m²6uvi
06.07.2022 10:1024.6°C24.7°C24.4°C63.1%1017.3hPa0.0mm1.4km/hNE7.9km/h696.0W/m²700W/m²6uvi
06.07.2022 10:1524.6°C24.8°C24.4°C62.6%1017.3hPa0.0mm1.7km/hESE6.5km/h687.0W/m²691W/m²6uvi
06.07.2022 10:2024.8°C24.9°C24.7°C62.1%1017.3hPa0.0mm3.2km/hSE6.5km/h691.7W/m²694W/m²6uvi
06.07.2022 10:2525.0°C25.1°C24.9°C62.0%1017.2hPa0.0mm3.2km/hN9.7km/h705.7W/m²721W/m²6uvi
06.07.2022 10:3025.2°C25.6°C24.9°C62.0%1017.2hPa0.0mm3.2km/hNNE6.5km/h733.3W/m²745W/m²6uvi
06.07.2022 10:3525.6°C25.6°C25.5°C59.2%1017.1hPa0.0mm3.1km/hNNE6.5km/h748.8W/m²754W/m²6uvi
06.07.2022 10:4025.8°C26.0°C25.7°C58.8%1017.0hPa0.0mm1.4km/hN3.2km/h765.3W/m²779W/m²6uvi
06.07.2022 10:4525.7°C25.8°C25.6°C52.1%1016.9hPa0.0mm1.6km/hW6.5km/h691.2W/m²788W/m²6uvi
06.07.2022 10:5025.5°C25.6°C25.4°C52.9%1016.9hPa0.0mm3.2km/hW6.5km/h249.6W/m²253W/m²6uvi
06.07.2022 10:5525.8°C25.9°C25.7°C52.6%1016.9hPa0.0mm3.2km/hW6.5km/h768.5W/m²773W/m²6uvi
06.07.2022 11:0026.1°C26.2°C26.0°C51.5%1016.9hPa0.0mm1.6km/hN4.7km/h784.0W/m²791W/m²6uvi
06.07.2022 11:0526.3°C26.3°C26.2°C51.0%1016.9hPa0.0mm1.4km/hN6.5km/h783.2W/m²793W/m²6uvi
06.07.2022 11:1026.4°C26.5°C26.2°C50.7%1016.9hPa0.0mm2.7km/hSSW4.7km/h775.7W/m²795W/m²6uvi
06.07.2022 11:1526.3°C26.4°C26.2°C49.9%1016.9hPa0.0mm2.2km/hSSE6.5km/h766.8W/m²796W/m²6uvi
06.07.2022 11:2026.5°C26.8°C26.2°C52.2%1016.8hPa0.0mm1.4km/hW6.5km/h766.8W/m²770W/m²6uvi
06.07.2022 11:2526.7°C26.8°C26.6°C49.3%1016.8hPa0.0mm2.7km/hSSW7.9km/h765.0W/m²768W/m²6uvi
06.07.2022 11:3026.8°C27.0°C26.6°C50.2%1016.8hPa0.0mm3.2km/hNE4.7km/h768.0W/m²772W/m²6uvi
06.07.2022 11:3526.8°C26.8°C26.7°C48.4%1016.8hPa0.0mm3.0km/hNNE3.2km/h775.2W/m²779W/m²6uvi
06.07.2022 11:4026.8°C26.9°C26.7°C53.2%1016.7hPa0.0mm1.4km/hSSE6.5km/h781.0W/m²786W/m²6uvi
06.07.2022 11:4527.0°C27.3°C26.9°C53.6%1016.7hPa0.0mm1.4km/hSE6.5km/h789.0W/m²791W/m²7uvi
06.07.2022 11:5027.4°C27.5°C27.3°C50.6%1016.7hPa0.0mm2.3km/hNNE6.5km/h793.4W/m²796W/m²7uvi
06.07.2022 11:5527.5°C27.6°C27.4°C52.0%1016.6hPa0.0mm3.2km/hNE4.7km/h804.7W/m²814W/m²7uvi
06.07.2022 12:0027.5°C27.7°C27.3°C51.6%1016.6hPa0.0mm1.6km/hSE4.7km/h813.7W/m²816W/m²7uvi
06.07.2022 12:0527.7°C27.9°C27.5°C50.5%1016.5hPa0.0mm1.4km/hNNE6.5km/h815.5W/m²817W/m²7uvi
06.07.2022 12:1027.8°C27.8°C27.7°C51.0%1016.5hPa0.0mm2.0km/hNNE7.9km/h819.5W/m²823W/m²8uvi
06.07.2022 12:1527.7°C27.8°C27.6°C48.2%1016.4hPa0.0mm3.2km/hSE6.5km/h819.7W/m²821W/m²8uvi
06.07.2022 12:2027.7°C27.8°C27.5°C48.2%1016.4hPa0.0mm3.2km/hSE7.9km/h817.0W/m²821W/m²8uvi
06.07.2022 12:2527.8°C27.9°C27.7°C49.0%1016.3hPa0.0mm2.3km/hN4.7km/h827.3W/m²833W/m²8uvi
06.07.2022 12:3027.9°C28.2°C27.7°C49.0%1016.2hPa0.0mm2.5km/hESE6.5km/h839.7W/m²846W/m²9uvi
06.07.2022 12:3528.3°C28.4°C28.2°C46.2%1016.2hPa0.0mm2.4km/hSSE7.9km/h849.4W/m²851W/m²9uvi
06.07.2022 12:4028.3°C28.4°C28.2°C43.6%1016.1hPa0.0mm3.2km/hNNE6.5km/h839.8W/m²846W/m²9uvi
06.07.2022 12:4528.6°C28.7°C28.4°C42.5%1016.2hPa0.0mm3.2km/hNE7.9km/h845.2W/m²847W/m²9uvi
06.07.2022 12:5028.7°C28.8°C28.6°C41.7%1016.0hPa0.0mm3.2km/hNNE7.9km/h848.7W/m²853W/m²9uvi
06.07.2022 12:5528.7°C28.8°C28.7°C40.3%1016.0hPa0.0mm3.1km/hNNE6.5km/h872.0W/m²884W/m²10uvi
06.07.2022 13:0028.6°C28.7°C28.6°C41.2%1015.9hPa0.0mm1.4km/hSE6.5km/h902.6W/m²909W/m²10uvi
06.07.2022 13:0528.7°C28.7°C28.6°C40.7%1015.8hPa0.0mm2.7km/hNNE9.7km/h898.0W/m²909W/m²10uvi
06.07.2022 13:1029.1°C29.2°C28.8°C39.7%1015.8hPa0.0mm3.2km/hNNE7.9km/h885.8W/m²902W/m²9uvi
06.07.2022 13:1529.0°C29.2°C28.7°C39.9%1015.8hPa0.0mm3.2km/hSSE4.7km/h638.7W/m²916W/m²8uvi
06.07.2022 13:2029.1°C29.4°C28.9°C41.5%1015.7hPa0.0mm2.7km/hNE7.9km/h925.7W/m²944W/m²10uvi
06.07.2022 13:2529.6°C29.7°C29.4°C38.2%1015.7hPa0.0mm2.0km/hESE7.9km/h947.3W/m²962W/m²10uvi
06.07.2022 13:3029.6°C29.7°C29.5°C39.9%1015.6hPa0.0mm3.2km/hENE6.5km/h958.7W/m²970W/m²10uvi
06.07.2022 13:3529.8°C29.8°C29.7°C40.4%1015.6hPa0.0mm2.5km/hSE7.9km/h941.7W/m²947W/m²9uvi
06.07.2022 13:4029.6°C29.8°C29.4°C38.5%1015.5hPa0.0mm3.2km/hESE6.5km/h930.7W/m²939W/m²9uvi
06.07.2022 13:4529.6°C29.9°C29.2°C39.9%1015.4hPa0.0mm2.7km/hW7.9km/h917.6W/m²921W/m²9uvi
06.07.2022 13:5030.1°C30.2°C29.9°C38.8%1015.3hPa0.0mm2.7km/hESE11.2km/h919.3W/m²925W/m²8uvi
06.07.2022 13:5529.9°C30.1°C29.7°C39.4%1015.2hPa0.0mm3.2km/hSE11.2km/h922.3W/m²926W/m²9uvi
06.07.2022 14:0030.0°C30.2°C29.9°C39.2%1015.1hPa0.0mm3.9km/hESE14.4km/h919.8W/m²928W/m²8uvi
06.07.2022 14:0530.2°C30.2°C30.1°C37.9%1015.1hPa0.0mm4.7km/hESE14.4km/h905.8W/m²942W/m²8uvi
06.07.2022 14:1030.1°C30.2°C29.9°C38.6%1015.0hPa0.0mm4.7km/hESE7.9km/h907.3W/m²912W/m²8uvi
06.07.2022 14:1530.2°C30.4°C30.1°C38.0%1014.9hPa0.0mm3.4km/hNNE9.7km/h908.2W/m²911W/m²8uvi
06.07.2022 14:2030.5°C30.6°C30.3°C37.4%1014.9hPa0.0mm3.2km/hNNE9.7km/h612.8W/m²916W/m²8uvi
06.07.2022 14:2530.3°C30.4°C30.2°C36.7%1014.9hPa0.0mm3.2km/hNE7.9km/h916.8W/m²935W/m²8uvi
06.07.2022 14:3030.1°C30.4°C29.9°C37.9%1014.8hPa0.0mm3.2km/hNNW6.5km/h896.2W/m²909W/m²8uvi
06.07.2022 14:3530.8°C31.1°C30.4°C38.5%1014.7hPa0.0mm3.2km/hNNE7.9km/h886.3W/m²888W/m²8uvi
06.07.2022 14:4031.0°C31.1°C30.8°C37.8%1014.5hPa0.0mm3.4km/hNE9.7km/h868.3W/m²881W/m²8uvi
06.07.2022 14:4530.7°C30.8°C30.7°C38.8%1014.6hPa0.0mm4.7km/hNNE14.4km/h873.0W/m²891W/m²8uvi
06.07.2022 14:5030.6°C30.7°C30.4°C37.1%1014.5hPa0.0mm4.7km/hNNE13.0km/h876.0W/m²891W/m²7uvi
06.07.2022 14:5530.5°C30.7°C30.4°C38.0%1014.5hPa0.0mm4.7km/hE14.4km/h854.2W/m²867W/m²7uvi
06.07.2022 15:0030.5°C30.6°C30.4°C39.4%1014.5hPa0.0mm3.4km/hSE11.2km/h874.3W/m²881W/m²7uvi
06.07.2022 15:0530.6°C30.7°C30.5°C38.8%1014.5hPa0.0mm3.4km/hNE11.2km/h900.0W/m²905W/m²7uvi
06.07.2022 15:1030.6°C30.8°C30.4°C37.7%1014.5hPa0.0mm4.2km/hNE7.9km/h471.0W/m²889W/m²6uvi
06.07.2022 15:1530.5°C30.7°C30.4°C40.5%1014.4hPa0.0mm3.2km/hN13.0km/h851.5W/m²874W/m²7uvi
06.07.2022 15:2030.5°C30.7°C30.3°C39.2%1014.4hPa0.0mm3.7km/hESE13.0km/h729.4W/m²856W/m²7uvi
06.07.2022 15:2530.0°C30.2°C29.8°C39.9%1014.4hPa0.0mm4.7km/hNNE13.0km/h225.0W/m²225W/m²3uvi
06.07.2022 15:3030.0°C30.1°C29.8°C40.2%1014.4hPa0.0mm4.7km/hNNE16.2km/h737.5W/m²840W/m²6uvi
06.07.2022 15:3529.9°C30.1°C29.7°C41.0%1014.4hPa0.0mm4.7km/hNE9.7km/h197.8W/m²213W/m²6uvi
06.07.2022 15:4029.6°C29.7°C29.5°C40.7%1014.4hPa0.0mm4.7km/hNNE14.4km/h190.8W/m²197W/m²3uvi
06.07.2022 15:4529.4°C29.5°C29.2°C41.4%1014.4hPa0.0mm4.4km/hNNE13.0km/h186.0W/m²197W/m²1uvi
06.07.2022 15:5029.1°C29.2°C28.9°C41.2%1014.4hPa0.0mm4.7km/hN14.4km/h180.8W/m²188W/m²1uvi
06.07.2022 15:5528.9°C28.9°C28.8°C42.3%1014.4hPa0.0mm4.7km/hNNE7.9km/h329.8W/m²823W/m²6uvi
06.07.2022 16:0029.4°C29.9°C28.9°C43.0%1014.4hPa0.0mm4.0km/hNNE14.4km/h799.0W/m²809W/m²6uvi
06.07.2022 16:0529.9°C30.0°C29.8°C40.0%1014.4hPa0.0mm4.3km/hN11.2km/h607.8W/m²786W/m²6uvi
06.07.2022 16:1029.7°C29.7°C29.6°C39.7%1014.3hPa0.0mm4.7km/hNNE11.2km/h472.0W/m²772W/m²5uvi
06.07.2022 16:1529.7°C29.8°C29.5°C39.7%1014.2hPa0.0mm4.7km/hNNE13.0km/h288.7W/m²715W/m²2uvi
06.07.2022 16:2029.5°C29.6°C29.4°C41.9%1014.2hPa0.0mm3.9km/hNNE7.9km/h231.8W/m²297W/m²4uvi
06.07.2022 16:2529.5°C29.6°C29.4°C40.8%1014.3hPa0.0mm3.2km/hNNE7.9km/h212.2W/m²225W/m²4uvi
06.07.2022 16:3029.3°C29.4°C29.2°C40.6%1014.2hPa0.0mm3.4km/hNNE9.7km/h188.8W/m²251W/m²2uvi
06.07.2022 16:3529.1°C29.2°C28.9°C43.1%1014.2hPa0.0mm3.3km/hNNE9.7km/h165.3W/m²172W/m²1uvi
06.07.2022 16:4028.8°C28.9°C28.7°C42.1%1014.2hPa0.0mm3.2km/hNNE13.0km/h182.2W/m²258W/m²2uvi
06.07.2022 16:4528.6°C28.7°C28.5°C42.7%1014.1hPa0.0mm4.1km/hN9.7km/h127.0W/m²134W/m²1uvi
06.07.2022 16:5028.4°C28.5°C28.4°C42.3%1014.1hPa0.0mm3.2km/hNNE6.5km/h110.2W/m²114W/m²1uvi
06.07.2022 16:5528.4°C28.4°C28.3°C43.4%1014.1hPa0.0mm3.2km/hN6.5km/h112.5W/m²116W/m²0uvi
06.07.2022 17:0028.3°C28.4°C28.3°C43.7%1014.1hPa0.0mm3.2km/hNNE6.5km/h124.3W/m²132W/m²0uvi
06.07.2022 17:0528.3°C28.4°C28.3°C43.6%1014.1hPa0.0mm2.4km/hNNE4.7km/h154.0W/m²162W/m²1uvi
06.07.2022 17:1028.4°C28.4°C28.3°C44.4%1014.0hPa0.0mm1.4km/hNNE3.2km/h135.0W/m²144W/m²0uvi
06.07.2022 17:1528.3°C28.4°C28.3°C44.9%1014.0hPa0.0mm1.8km/hNNE7.9km/h120.8W/m²128W/m²0uvi
06.07.2022 17:2028.2°C28.3°C28.1°C45.1%1014.0hPa0.0mm2.7km/hNNE6.5km/h102.2W/m²105W/m²0uvi
06.07.2022 17:2528.1°C28.2°C28.1°C45.9%1014.0hPa0.0mm3.2km/hNNE6.5km/h101.2W/m²104W/m²0uvi
06.07.2022 17:3028.0°C28.1°C27.9°C46.0%1014.0hPa0.0mm3.1km/hN9.7km/h89.3W/m²95W/m²0uvi
06.07.2022 17:3527.8°C27.9°C27.7°C46.4%1014.0hPa0.0mm2.0km/hNNE6.5km/h87.7W/m²90W/m²0uvi
06.07.2022 17:4027.6°C27.7°C27.6°C47.4%1014.0hPa0.0mm1.6km/hNNW4.7km/h90.8W/m²93W/m²0uvi
06.07.2022 17:4527.6°C27.6°C27.5°C47.2%1014.1hPa0.0mm1.9km/hNNE9.7km/h99.3W/m²107W/m²0uvi
06.07.2022 17:5027.4°C27.4°C27.3°C47.9%1014.1hPa0.0mm3.2km/hESE6.5km/h108.7W/m²111W/m²0uvi
06.07.2022 17:5527.4°C27.4°C27.4°C49.2%1014.1hPa0.0mm3.2km/hSSW4.7km/h96.3W/m²104W/m²0uvi
06.07.2022 18:0027.3°C27.4°C27.3°C48.5%1014.1hPa0.0mm2.0km/hNE4.7km/h80.2W/m²84W/m²0uvi
06.07.2022 18:0527.3°C27.4°C27.3°C47.9%1014.0hPa0.0mm1.4km/hNNE6.5km/h72.5W/m²77W/m²0uvi
06.07.2022 18:1027.3°C27.3°C27.2°C47.7%1014.1hPa0.0mm3.1km/hNE6.5km/h71.7W/m²74W/m²0uvi
06.07.2022 18:1527.2°C27.3°C27.2°C48.0%1014.1hPa0.0mm2.7km/hNNE3.2km/h78.4W/m²91W/m²0uvi
06.07.2022 18:2027.3°C27.3°C27.2°C50.1%1014.1hPa0.0mm1.4km/hSE3.2km/h149.3W/m²214W/m²0uvi
06.07.2022 18:2527.3°C27.3°C27.2°C49.3%1014.1hPa0.0mm1.4km/hSSW3.2km/h121.0W/m²128W/m²0uvi
06.07.2022 18:3027.3°C27.3°C27.2°C48.2%1014.1hPa0.0mm1.4km/hSSW3.2km/h126.3W/m²135W/m²0uvi
06.07.2022 18:3527.3°C27.3°C27.3°C50.0%1014.1hPa0.0mm1.4km/hNNE4.7km/h96.7W/m²109W/m²0uvi
06.07.2022 18:4027.3°C27.3°C27.2°C53.3%1014.2hPa0.0mm1.4km/hESE3.2km/h88.5W/m²93W/m²0uvi
06.07.2022 18:4527.2°C27.3°C27.1°C53.1%1014.2hPa0.0mm0.7km/hNNE3.2km/h82.5W/m²84W/m²0uvi
06.07.2022 18:5027.1°C27.1°C27.0°C51.7%1014.2hPa0.0mm0.0km/hENE3.2km/h72.4W/m²76W/m²0uvi
06.07.2022 18:5526.9°C27.0°C26.9°C49.3%1014.2hPa0.0mm0.2km/hNE6.5km/h64.7W/m²69W/m²0uvi
06.07.2022 19:0026.9°C26.9°C26.8°C48.8%1014.2hPa0.0mm1.4km/hESE3.2km/h64.8W/m²69W/m²0uvi
06.07.2022 19:0526.8°C26.8°C26.8°C48.3%1014.3hPa0.0mm1.4km/hNNE4.7km/h68.3W/m²70W/m²0uvi
06.07.2022 19:1026.7°C26.8°C26.6°C50.6%1014.4hPa0.0mm1.4km/hNNE4.7km/h65.7W/m²67W/m²0uvi
06.07.2022 19:1526.6°C26.7°C26.5°C51.9%1014.5hPa0.0mm1.3km/hNE1.4km/h63.3W/m²65W/m²0uvi
06.07.2022 19:2026.5°C26.6°C26.4°C53.0%1014.5hPa0.0mm0.0km/hNNE1.4km/h53.8W/m²60W/m²0uvi
06.07.2022 19:2526.3°C26.4°C26.3°C50.6%1014.5hPa0.0mm0.0km/hNNE3.2km/h65.3W/m²83W/m²0uvi
06.07.2022 19:3026.3°C26.3°C26.3°C50.0%1014.5hPa0.0mm0.1km/hNNE4.7km/h113.3W/m²139W/m²0uvi
06.07.2022 19:3526.3°C26.3°C26.3°C49.2%1014.5hPa0.0mm1.4km/hNNE6.5km/h96.3W/m²109W/m²0uvi
06.07.2022 19:4026.3°C26.3°C26.3°C48.8%1014.4hPa0.0mm3.1km/hNNE4.7km/h99.7W/m²105W/m²0uvi
06.07.2022 19:4526.4°C26.4°C26.3°C48.8%1014.5hPa0.0mm2.4km/hNNE3.2km/h76.3W/m²90W/m²0uvi
06.07.2022 19:5026.3°C26.4°C26.3°C49.6%1014.5hPa0.0mm1.0km/hNE1.4km/h57.0W/m²58W/m²0uvi
06.07.2022 19:5526.3°C26.4°C26.3°C50.4%1014.6hPa0.0mm0.0km/hNE1.4km/h49.2W/m²54W/m²0uvi
06.07.2022 20:0026.3°C26.3°C26.3°C50.7%1014.7hPa0.0mm0.0km/hNE0.0km/h38.8W/m²42W/m²0uvi
06.07.2022 20:0526.2°C26.3°C26.2°C51.7%1014.7hPa0.0mm0.0km/hNE3.2km/h34.0W/m²37W/m²0uvi
06.07.2022 20:1026.1°C26.2°C25.9°C54.9%1014.8hPa0.0mm0.0km/hSE4.7km/h32.7W/m²35W/m²0uvi
06.07.2022 20:1525.8°C25.9°C25.7°C56.6%1014.8hPa0.0mm1.0km/hSE3.2km/h38.6W/m²39W/m²0uvi
06.07.2022 20:2025.7°C25.8°C25.6°C57.0%1014.9hPa0.0mm0.4km/hS3.2km/h38.0W/m²39W/m²0uvi
06.07.2022 20:2525.5°C25.6°C25.4°C57.2%1015.0hPa0.0mm0.0km/hS1.4km/h26.7W/m²33W/m²0uvi
06.07.2022 20:3025.3°C25.4°C25.2°C58.5%1015.0hPa0.0mm0.4km/hS4.7km/h17.6W/m²21W/m²0uvi
06.07.2022 20:3525.2°C25.2°C25.1°C57.9%1015.1hPa0.0mm1.4km/hS1.4km/h11.0W/m²14W/m²0uvi
06.07.2022 20:4025.2°C25.2°C25.1°C56.9%1015.1hPa0.0mm0.4km/hS1.4km/h7.3W/m²9W/m²0uvi
06.07.2022 20:4525.1°C25.2°C25.1°C58.9%1015.0hPa0.0mm0.0km/hS3.2km/h5.7W/m²7W/m²0uvi
06.07.2022 20:5025.0°C25.1°C24.9°C58.6%1015.0hPa0.0mm0.0km/hSE1.4km/h0.0W/m²0W/m²0uvi
06.07.2022 20:5524.8°C24.9°C24.7°C58.6%1015.0hPa0.0mm0.0km/hSE1.4km/h0.0W/m²0W/m²0uvi
06.07.2022 21:0024.7°C24.7°C24.6°C58.0%1015.0hPa0.0mm0.0km/hSE4.7km/h0.0W/m²0W/m²0uvi
06.07.2022 21:0524.6°C24.7°C24.5°C58.0%1015.0hPa0.0mm1.0km/hSSW4.7km/h0.0W/m²0W/m²0uvi
06.07.2022 21:1024.5°C24.6°C24.4°C58.2%1014.9hPa0.0mm1.4km/hS1.4km/h0.0W/m²0W/m²0uvi
06.07.2022 21:1524.4°C24.4°C24.3°C58.0%1014.9hPa0.0mm1.0km/hS1.4km/h0.0W/m²0W/m²0uvi
06.07.2022 21:2024.2°C24.3°C24.2°C57.0%1015.0hPa0.0mm0.0km/hS1.4km/h0.0W/m²0W/m²0uvi
06.07.2022 21:2524.2°C24.2°C24.1°C57.7%1015.0hPa0.0mm0.0km/hS3.2km/h0.0W/m²0W/m²0uvi
06.07.2022 21:3024.0°C24.1°C23.9°C59.1%1015.1hPa0.0mm0.5km/hSSE4.7km/h0.0W/m²0W/m²0uvi
06.07.2022 21:3523.8°C23.9°C23.7°C60.0%1015.2hPa0.0mm1.4km/hSSE3.2km/h0.0W/m²0W/m²0uvi
06.07.2022 21:4023.7°C23.7°C23.7°C58.7%1015.3hPa0.0mm1.4km/hSW6.5km/h0.0W/m²0W/m²0uvi
06.07.2022 21:4523.7°C23.7°C23.6°C58.0%1015.3hPa0.0mm3.0km/hS6.5km/h0.0W/m²0W/m²0uvi
06.07.2022 21:5023.6°C23.7°C23.6°C58.1%1015.4hPa0.0mm3.2km/hWSW4.7km/h0.0W/m²0W/m²0uvi
06.07.2022 21:5523.7°C23.7°C23.6°C60.3%1015.5hPa0.0mm1.6km/hWSW1.4km/h0.0W/m²0W/m²0uvi
06.07.2022 22:0023.6°C23.7°C23.6°C61.0%1015.5hPa0.0mm0.4km/hWSW1.4km/h0.0W/m²0W/m²0uvi
06.07.2022 22:0523.6°C23.6°C23.6°C60.8%1015.6hPa0.0mm0.0km/hWSW1.4km/h0.0W/m²0W/m²0uvi
06.07.2022 22:1023.6°C23.6°C23.5°C62.1%1015.7hPa0.0mm0.0km/hWSW4.7km/h0.0W/m²0W/m²0uvi
06.07.2022 22:1523.4°C23.4°C23.3°C62.3%1015.8hPa0.0mm1.0km/hSSW4.7km/h0.0W/m²0W/m²0uvi
06.07.2022 22:2023.3°C23.4°C23.2°C60.9%1015.8hPa0.0mm1.4km/hSSW4.7km/h0.0W/m²0W/m²0uvi
06.07.2022 22:2523.1°C23.2°C23.1°C61.0%1016.0hPa0.0mm1.4km/hSSW3.2km/h0.0W/m²0W/m²0uvi
06.07.2022 22:3023.0°C23.1°C23.0°C60.8%1016.1hPa0.0mm1.4km/hSSW3.2km/h0.0W/m²0W/m²0uvi
06.07.2022 22:3523.0°C23.0°C22.9°C60.6%1016.1hPa0.0mm1.4km/hSSW3.2km/h0.0W/m²0W/m²0uvi
06.07.2022 22:4022.8°C22.9°C22.8°C60.7%1016.1hPa0.0mm1.4km/hS7.9km/h0.0W/m²0W/m²0uvi
06.07.2022 22:4522.8°C22.8°C22.8°C60.7%1016.1hPa0.0mm1.8km/hSW6.5km/h0.0W/m²0W/m²0uvi
06.07.2022 22:5022.8°C22.9°C22.8°C61.9%1016.1hPa0.0mm1.4km/hSW3.2km/h0.0W/m²0W/m²0uvi
06.07.2022 22:5522.7°C22.8°C22.6°C62.6%1016.1hPa0.0mm1.4km/hS3.2km/h0.0W/m²0W/m²0uvi
06.07.2022 23:0022.4°C22.5°C22.3°C62.9%1016.1hPa0.0mm1.4km/hS1.4km/h0.0W/m²0W/m²0uvi
06.07.2022 23:0522.2°C22.3°C22.1°C63.0%1016.1hPa0.0mm0.7km/hS4.7km/h0.0W/m²0W/m²0uvi
06.07.2022 23:1022.0°C22.1°C21.9°C62.7%1016.1hPa0.0mm1.0km/hS4.7km/h0.0W/m²0W/m²0uvi
06.07.2022 23:1521.8°C21.9°C21.8°C63.3%1016.1hPa0.0mm1.4km/hS4.7km/h0.0W/m²0W/m²0uvi
06.07.2022 23:2021.7°C21.8°C21.6°C64.3%1016.1hPa0.0mm1.4km/hSSW3.2km/h0.0W/m²0W/m²0uvi
06.07.2022 23:2521.5°C21.6°C21.4°C65.0%1016.2hPa0.0mm1.4km/hSSW7.9km/h0.0W/m²0W/m²0uvi
06.07.2022 23:3021.4°C21.5°C21.4°C64.4%1016.2hPa0.0mm3.2km/hSSW7.9km/h0.0W/m²0W/m²0uvi
06.07.2022 23:3521.5°C21.5°C21.4°C64.8%1016.2hPa0.0mm3.7km/hSW1.4km/h0.0W/m²0W/m²0uvi
06.07.2022 23:4021.4°C21.5°C21.4°C65.8%1016.2hPa0.0mm1.1km/hSW1.4km/h0.0W/m²0W/m²0uvi
06.07.2022 23:4521.3°C21.4°C21.3°C66.2%1016.2hPa0.0mm0.1km/hSW4.7km/h0.0W/m²0W/m²0uvi
06.07.2022 23:5021.3°C21.3°C21.2°C68.0%1016.3hPa0.0mm2.0km/hSSW6.5km/h0.0W/m²0W/m²0uvi
06.07.2022 23:5521.1°C21.2°C21.1°C67.2%1016.3hPa0.0mm3.2km/hW3.2km/h0.0W/m²0W/m²0uvi
07.07.2022 00:0021.1°C21.1°C21.1°C66.8%1016.3hPa0.0mm2.7km/hSW4.7km/h0.0W/m²0W/m²0uvi
07.07.2022 00:0521.1°C21.1°C21.1°C66.2%1016.3hPa0.0mm1.4km/hSSW6.5km/h0.0W/m²0W/m²0uvi
07.07.2022 00:1021.1°C21.1°C21.0°C65.1%1016.2hPa0.0mm2.0km/hSSW6.5km/h0.0W/m²0W/m²0uvi
07.07.2022 00:1521.0°C21.1°C21.0°C65.5%1016.2hPa0.0mm2.6km/hSW3.2km/h0.0W/m²0W/m²0uvi
07.07.2022 00:2020.9°C21.0°C20.9°C67.9%1016.3hPa0.0mm1.4km/hSW3.2km/h0.0W/m²0W/m²0uvi
07.07.2022 00:2520.8°C20.9°C20.7°C68.9%1016.5hPa0.0mm1.1km/hS3.2km/h0.0W/m²0W/m²0uvi
07.07.2022 00:3020.6°C20.7°C20.5°C69.6%1016.5hPa0.0mm1.4km/hWSW3.2km/h0.0W/m²0W/m²0uvi
07.07.2022 00:3520.4°C20.5°C20.4°C70.0%1016.6hPa0.0mm1.4km/hSW3.2km/h0.0W/m²0W/m²0uvi
07.07.2022 00:4020.4°C20.4°C20.3°C70.8%1016.6hPa0.0mm1.4km/hSW3.2km/h0.0W/m²0W/m²0uvi
07.07.2022 00:4520.3°C20.3°C20.3°C71.0%1016.6hPa0.0mm1.4km/hWSW3.2km/h0.0W/m²0W/m²0uvi
07.07.2022 00:5020.3°C20.3°C20.2°C71.0%1016.7hPa0.0mm1.4km/hWSW1.4km/h0.0W/m²0W/m²0uvi
07.07.2022 00:5520.3°C20.3°C20.2°C71.0%1016.7hPa0.0mm0.3km/hSW4.7km/h0.0W/m²0W/m²0uvi
07.07.2022 01:0020.2°C20.2°C20.2°C71.2%1016.7hPa0.0mm1.4km/hSSW3.2km/h0.0W/m²0W/m²0uvi
07.07.2022 01:0520.1°C20.2°C20.1°C72.0%1016.7hPa0.0mm1.4km/hSSW4.7km/h0.0W/m²0W/m²0uvi
07.07.2022 01:1020.0°C20.1°C19.9°C72.0%1016.6hPa0.0mm1.4km/hSSW1.4km/h0.0W/m²0W/m²0uvi
07.07.2022 01:1519.9°C19.9°C19.8°C72.2%1016.6hPa0.0mm0.7km/hSSW1.4km/h0.0W/m²0W/m²0uvi
07.07.2022 01:2019.8°C19.9°C19.8°C72.7%1016.6hPa0.0mm0.0km/hSSW1.4km/h0.0W/m²0W/m²0uvi
07.07.2022 01:2519.8°C19.8°C19.7°C71.0%1016.6hPa0.0mm0.8km/hS4.7km/h0.0W/m²0W/m²0uvi
07.07.2022 01:3019.7°C19.7°C19.6°C70.0%1016.6hPa0.0mm1.4km/hS4.7km/h0.0W/m²0W/m²0uvi
07.07.2022 01:3519.6°C19.6°C19.6°C70.0%1016.6hPa0.0mm1.4km/hS6.5km/h0.0W/m²0W/m²0uvi
07.07.2022 01:4019.6°C19.6°C19.5°C69.7%1016.6hPa0.0mm1.4km/hS4.7km/h0.0W/m²0W/m²0uvi
07.07.2022 01:4519.5°C19.5°C19.4°C69.7%1016.5hPa0.0mm1.4km/hS4.7km/h0.0W/m²0W/m²0uvi
07.07.2022 01:5019.4°C19.4°C19.4°C70.0%1016.5hPa0.0mm1.4km/hSE3.2km/h0.0W/m²0W/m²0uvi
07.07.2022 01:5519.4°C19.4°C19.4°C70.0%1016.5hPa0.0mm1.4km/hSSE4.7km/h0.0W/m²0W/m²0uvi
07.07.2022 02:0019.4°C19.4°C19.4°C70.0%1016.4hPa0.0mm1.4km/hSSE4.7km/h0.0W/m²0W/m²0uvi
07.07.2022 02:0519.4°C19.5°C19.4°C71.0%1016.4hPa0.0mm1.4km/hSSE4.7km/h0.0W/m²0W/m²0uvi
07.07.2022 02:1019.4°C19.4°C19.4°C71.7%1016.4hPa0.0mm0.2km/hSSE1.4km/h0.0W/m²0W/m²0uvi
07.07.2022 02:1519.4°C19.4°C19.4°C72.0%1016.4hPa0.0mm0.0km/hSSE1.4km/h0.0W/m²0W/m²0uvi
07.07.2022 02:2019.4°C19.4°C19.3°C72.7%1016.5hPa0.0mm0.0km/hSSE0.0km/h0.0W/m²0W/m²0uvi
07.07.2022 02:2519.4°C19.4°C19.3°C72.5%1016.6hPa0.0mm0.0km/hSSE3.2km/h0.0W/m²0W/m²0uvi
07.07.2022 02:3019.4°C19.4°C19.4°C74.0%1016.5hPa0.0mm0.1km/hW4.7km/h0.0W/m²0W/m²0uvi
07.07.2022 02:3519.4°C19.4°C19.4°C74.0%1016.5hPa0.0mm1.3km/hWSW3.2km/h0.0W/m²0W/m²0uvi
07.07.2022 02:4019.4°C19.4°C19.4°C74.3%1016.5hPa0.0mm0.0km/hWSW1.4km/h0.0W/m²0W/m²0uvi
07.07.2022 02:4519.4°C19.4°C19.4°C74.0%1016.5hPa0.0mm0.0km/hSSE3.2km/h0.0W/m²0W/m²0uvi
07.07.2022 02:5019.4°C19.4°C19.4°C73.5%1016.5hPa0.0mm0.7km/hSSW4.7km/h0.0W/m²0W/m²0uvi
07.07.2022 02:5519.4°C19.4°C19.4°C73.6%1016.5hPa0.0mm1.0km/hSSW4.7km/h0.0W/m²0W/m²